Flag for Greenland Weather past 2 weeks in Ittoqqortoormiit, Greenland

Now
43 °F

Partly sunny.


Feels Like: 41 °F
Forecast: 32 / 40 °F
Wind: 3 mph from South

Location: Scoresbysund

Current Time: Aug 28, 2014 at 8:04:36 AM

Latest Report: Aug 28, 2014 at 7:00 AM


Visibility: 31 mi

Pressure: 29.82 "Hg

Humidity: 66%

Dew point: 32 °F

Location of IttoqqortoormiitLocation

Historic Weather in Ittoqqortoormiit — Graph

°F

Ittoqqortoormiit temperature yesterday

Maximum temperature yesterday: 44 °F (at 7:00 PM)
Minimum temperature yesterday: 39 °F (at 5:00 AM)
Average temperature yesterday: 41 °F

Past Weeks' High & Low Weather Summary

 TemperatureHumidityPressure
High58 °F (Aug 22, 4:00 PM)99% (Aug 23, 6:00 AM)30.28 "Hg (Aug 23, 6:00 AM)
Low38 °F (Aug 23, 4:00 AM)30% (Aug 17, 8:00 AM)29.50 "Hg (Aug 24, 6:00 AM)
Average45 °F68%29.89 "Hg
* Reported Aug 13 6:00 AM — Aug 28 6:00 AM, Ittoqqortoormiit, Weather by CustomWeather, © 2014

Note: Actual official high and low records may vary slightly from our data, if they occured in-between our weather recording intervals... More about our weather records

Advertising

Ittoqqortoormiit weather history for previous 24 hours

 ConditionsComfort  
Time TempWeatherWind HumidityBarometerVisibility
6:00 AM
Aug 28
42 °FOvercast.2 mph67%29.80 "Hg31 mi
5:00 AM42 °FOvercast.5 mph68%29.80 "Hg31 mi
4:00 AM42 °FOvercast.1 mph76%29.80 "Hg31 mi
3:00 AM42 °FOvercast.1 mph76%29.79 "Hg31 mi
2:00 AM42 °FOvercast.2 mph76%29.79 "Hg31 mi
1:00 AM41 °FOvercast.1 mph81%29.80 "Hg31 mi
12:00 AM42 °FClear.2 mph77%29.80 "Hg31 mi
11:00 PM
Aug 27
42 °FOvercast.1 mph81%29.80 "Hg31 mi
10:00 PM43 °FOvercast.1 mph80%29.80 "Hg31 mi
9:00 PM42 °FOvercast.1 mph82%29.80 "Hg31 mi
8:00 PM44 °FOvercast.2 mph73%29.80 "Hg31 mi
7:00 PM44 °FOvercast.1 mph75%29.80 "Hg31 mi
6:00 PM43 °FOvercast.2 mph79%29.80 "Hg31 mi
5:00 PM42 °FOvercast.2 mph85%29.80 "Hg31 mi
4:00 PM42 °FOvercast.2 mph86%29.80 "Hg28 mi
3:00 PM42 °FOvercast.2 mph83%29.81 "Hg31 mi
2:00 PM41 °FOvercast.2 mph86%29.81 "Hg31 mi
1:00 PM42 °FPartly sunny.3 mph81%29.80 "Hg31 mi
12:00 PM43 °FOvercast.2 mph75%29.80 "Hg31 mi
11:00 AM42 °FOvercast.3 mph80%29.80 "Hg31 mi
10:00 AM42 °FOvercast.2 mph79%29.79 "Hg31 mi
9:00 AM40 °FOvercast.2 mph91%29.79 "Hg25 mi
8:00 AM39 °FOvercast.1 mph93%29.79 "Hg28 mi
Weather by CustomWeather, © 2014

See weather overviewHow to use our weather pages